Tracking 18984 objects as of 24-Feb-2018
HD Live streaming from Space Station
objects crossing your sky now

FENGYUN 1C DEB

Track FENGYUN 1C DEB now!
10-day predictions


NORAD ID: 31487
Int'l Code: 1999-025BWB
Perigee: 844.0 km
Apogee: 1,037.5 km
Inclination: 102.4 °
Period: 103.7 minutes
Semi major axis: 7311 km
RCS: 0.0135 m2 (small)
Launch date: May 10, 1999
Source: People's Republic of China (PRC)
Launch site: Taiyaun Space Center, China (TSC)

Note: This is SATELLITE DEBRIS
aabbcc
Your satellite tracking list
Your tracking list is empty




NASA's NSSDC Master Catalog

Two Line Element Set (TLE):
1 31487U 99025BWB 18054.93401914  .00000173  00000-0  19038-3 0  9992
2 31487 102.4233 315.6489 0132277 265.2668 152.8020 13.88578768548919
Source of the keplerian elements: AFSPC